Flag for Ecuador Weather past 2 weeks in Quito, Ecuador

Now
50 °F

Passing clouds.


Feels Like: 47 °F
Forecast: 47 / 72 °F
Wind: 7 mph from South

Location: Latacunga Airport

Current Time: Aug 3, 2015 at 4:02:55 AM

Latest Report: Aug 3, 2015 at 3:00 AM


Visibility: N/A

Pressure: 30.42 "Hg (21.63 "Hg at 2826m altitude)

Humidity: 94%

Dew point: 48 °F

Location of QuitoLocation

Historic Weather in Quito — Graph

°F

Quito temperature yesterday

Maximum temperature yesterday: 64 °F (at 3:00 PM)
Minimum temperature yesterday: 50 °F (at 2:00 AM)
Average temperature yesterday: 55 °F

Past Weeks' High & Low Weather Summary

 TemperatureHumidityPressure
High68 °F (Jul 20, 3:00 PM)100% (Jul 19, 4:00 AM)30.51 "Hg (Jul 19, 4:00 AM)
Low45 °F (Jul 23, 4:00 AM)46% (Jul 26, 4:00 PM)30.30 "Hg (Jul 28, 4:00 PM)
Average54 °F82%30.43 "Hg
* Reported Jul 19 3:00 AM — Aug 3 3:00 AM, Quito, Weather by CustomWeather, © 2015

Note: Actual official high and low records may vary slightly from our data, if they occured in-between our weather recording intervals... More about our weather records

Advertising

Quito weather history for previous 24 hours

 ConditionsComfort  
Time TempWeatherWind HumidityBarometerVisibility
3:00 AM
Mon, Aug 3
50 °FPassing clouds.7 mph94%30.42 "HgN/A
2:00 AM50 °FPassing clouds.5 mph94%30.42 "HgN/A
1:00 AM50 °FPassing clouds.6 mph94%30.42 "HgN/A
12:00 AM50 °FPassing clouds.3 mph94%30.45 "HgN/A
11:00 PM
Sun, Aug 2
50 °FPassing clouds.2 mph94%30.45 "HgN/A
10:00 PM52 °FPassing clouds.7 mph88%30.45 "HgN/A
9:00 PM52 °FPassing clouds.3 mph88%30.42 "HgN/A
8:00 PM54 °FPassing clouds.16 mph82%30.39 "HgN/A
7:00 PM55 °FPassing clouds.12 mph77%30.36 "HgN/A
6:00 PM59 °FScattered clouds.16 mph68%30.36 "HgN/A
5:00 PM63 °FPartly sunny.17 mph56%30.33 "HgN/A
4:00 PM63 °FPartly sunny.17 mph56%30.33 "HgN/A
3:00 PM64 °FScattered clouds.22 mph56%30.33 "HgN/A
2:00 PM61 °FPartly sunny.16 mph63%30.39 "HgN/A
1:00 PM61 °FScattered showers. Broken clouds.17 mph63%30.42 "HgN/A
12:00 PM61 °FBroken clouds.18 mph59%30.42 "HgN/A
11:00 AM57 °FBroken clouds.23 mph67%30.45 "HgN/A
10:00 AM54 °FPartly sunny.21 mph77%30.45 "HgN/A
9:00 AM54 °FPartly sunny.18 mph77%30.45 "HgN/A
8:00 AM52 °FPartly sunny.15 mph82%30.42 "HgN/A
7:00 AM50 °FPartly sunny.15 mph88%30.42 "HgN/A
6:00 AM50 °FPassing clouds.12 mph94%30.42 "HgN/A
5:00 AM50 °FPassing clouds.10 mph94%30.42 "HgN/A
4:00 AM50 °FPassing clouds.10 mph94%30.42 "HgN/A
Weather by CustomWeather, © 2015

See weather overviewHow to use our weather pages